COSMOS 1275 DEB, 12709

Orbit data source: Space-Track

COSMOS 1275 DEB, 12709 is space debris in LEO originally from a launch on Thu, 04 Jun 1981 UTC launched from the Plesetsk Missile And Space Complex (PKMTR). Debris objects in space refer to the collection of defunct objects orbiting the Earth. Examples of debris include non-operational satellites, rocket bodies, and fragments generated from explosions, collisions, or faulty payload assembly.

Loading next visibility...
Identifier
12709, 1981-053BD
Orbit
LEO
Country
Flag of CISCIS
Related business
Manufacturer
Unknown
Mission
Spacecraft
Bus & Motor
Unknown
Mass
Unknown
Launch date (UTC)
1981-06-04 (45 years ago)
Launch vehicle
Unknown
Launch site
Plesetsk Missile And Space Complex (PKMTR)
Object type
Payload
Rocket body
Debris
Shape & HBR
Unknown shape, 0.3 m
Radar Cross Section
Medium (>0.1 m² and <1 m²)

Expand to show TLE details & history
Last TLE update: 11 hours ago

TLE from 11 hours ago
0 COSMOS 1275 DEB
1 12709U 81053BD  26124.01234867  .00000536  00000-0  62465-3 0  9992
2 12709  82.9701 313.4322 0123957 124.2706  29.8712 13.63577192216883
Epoch: 2026-05-04T00:17Z
TLE epoch observation values (Epoch: 2026-05-04T00:17:46.925Z)
Latitude
24.96748°
Longitude
-96.19532°
Altitude
946.444 km
Speed
7.42 km/s
True Right ascension
08h 40m 37s
True Declination
24° 50' 22"
Sunlit
Object was in daylight at epoch
Visualization orbit readout
Latitude
Unknown
Longitude
Unknown
Altitude
Unknown
Speed
Unknown
Apparent Right ascension
Unknown
Apparent Declination
Unknown
Sunlit
N/A
Visualization observer readout
Local Sidereal Time
19:03:17
Azimuth
Unknown
Elevation
Unknown
Doppler factor
Unknown
Orbital elements
Apogee altitude
1,111.587 km
Perigee altitude
928.179 km
Semi-major axis
7,398.02 km
Eccentricity
0.0124
Inclination
82.9701°
RAAN
313.4322°
Arg. of periapsis
124.2706°
True anomaly
30.58826°
Mean anomaly
29.8712°
Eccentric anomaly
30.22876°
Mean motion
3.41091 °/min
Orbital period
105.54 mins
BSTAR
0.00062465
Loading maneuver chart data...
Computing Atmospheric mass density...
Loading historical data...
Loading historical data...
Loading historical data...
Loading historical data...
Loading historical data...
Loading historical data...
Loading historical data...

Documentation

Showing up to 5 results
|